Content
SEND FEEDBACK

Daily
Averages
Monthly
Summary
United States of America

SUNDANCE, WYOMING


Home > North America > United States > Wyoming
Elevation: 4908 feet     Latitude: 44 24N     Longitude: 104 21W

WEATHER
 
SELECT A DAY
Number of Records: 227,285;   Date Range: 1/2/95 - 7/26/14
 
SHARE

PRINT THIS DATA

[ ← Previous Day ]
WEATHER ALMANAC - JANUARY 14, 2013
[ Next Day → ]
[ °C ]   °F
Weather ElementAverageHighLow
Temperature14 °F19.4 °F (3:15 pm)10.4 °F (4:35 am)
Dewpoint-0.1 °F3.2 °F (10:35 am)-4 °F (5:55 pm)
Humidity54 %67 % (4:35 am)38 % (6:15 pm)
Barometer30.03 in30.09 in (9:35 am)29.95 in (10:15 pm)
Wind Speed11.5 mph19.6 mph (2:35 pm)
Wind Gust25.3 mph (2:35 pm)
Weather ElementAverage
Visibility10 mi
Wind DirectionWSW (254.5 °)

Weather ElementTotal
Precipitation---
Heating Degree Days50.1 (Base 65)
Averaged from 66 records on January 14, 2013
WEATHER CONDITIONS BREAKOUT
WIND DIRECTION BREAKOUT
WEATHER BY HOUR - JANUARY 14, 2013
[ °C ]   °F
Local TimeTemperatureDewpointHumidityBarometerVisibilityWind DirectionWind SpeedGust SpeedPrecipitationEventsConditions
12:55 AM12.2 °F1.4 °F62 %30.05 in10.0 miWest (260°)11.5 mphOvercast
1:15 AM12.2 °F1.4 °F62 %30.05 in10.0 miWest (260°)9.2 mphOvercast
1:35 AM12.2 °F1.4 °F62 %30.05 in10.0 miWSW (250°)10.4 mphOvercast
1:55 AM12.2 °F1.4 °F62 %30.05 in10.0 miWSW (240°)12.7 mphOvercast
2:15 AM12.2 °F1.4 °F62 %30.04 in10.0 miWest (270°)8.1 mphOvercast
2:35 AM12.2 °F1.4 °F62 %30.06 in10.0 miWest (260°)5.8 mphOvercast
2:55 AM12.2 °F1.4 °F62 %30.06 in10.0 miWSW (250°)5.8 mphOvercast
3:15 AM12.2 °F1.4 °F62 %30.06 in10.0 miSW (230°)12.7 mph18.4 mphOvercast
3:35 AM14.0 °F1.4 °F57 %30.05 in10.0 miWSW (250°)12.7 mphOvercast
3:55 AM12.2 °F1.4 °F62 %30.05 in10.0 miWSW (240°)16.1 mphOvercast
4:15 AM12.2 °F1.4 °F62 %30.05 in10.0 miWest (260°)10.4 mphMostly Cloudy
4:35 AM10.4 °F1.4 °F67 %30.04 in10.0 miWest (260°)8.1 mphOvercast
4:55 AM10.4 °F-0.4 °F62 %30.04 in10.0 miWSW (250°)13.8 mph17.3 mphOvercast
5:15 AM12.2 °F-0.4 °F57 %30.04 in10.0 miWSW (250°)12.7 mph18.4 mphOvercast
5:35 AM10.4 °F-0.4 °F62 %30.03 in10.0 miWest (260°)10.4 mphMostly Cloudy
5:55 AM10.4 °F-0.4 °F62 %30.04 in10.0 miWSW (250°)8.1 mphScattered Clouds
6:15 AM10.4 °F-0.4 °F62 %30.05 in10.0 miWest (260°)8.1 mphClear
6:35 AM10.4 °F-0.4 °F62 %30.05 in10.0 miWest (270°)6.9 mphMostly Cloudy
6:55 AM10.4 °F-0.4 °F62 %30.06 in10.0 miWest (260°)9.2 mphMostly Cloudy
7:15 AM10.4 °F-0.4 °F62 %30.06 in10.0 miWest (280°)5.8 mphMostly Cloudy
7:35 AM10.4 °F-0.4 °F62 %30.06 in10.0 miWest (260°)9.2 mphOvercast
7:55 AM12.2 °F-0.4 °F57 %30.06 in10.0 miWSW (250°)10.4 mphMostly Cloudy
8:15 AM12.2 °F-0.4 °F57 %30.07 in10.0 miWSW (250°)11.5 mphMostly Cloudy
8:35 AM10.4 °F-0.4 °F62 %30.07 in10.0 miWest (260°)11.5 mph17.3 mphPartly Cloudy
8:55 AM12.2 °F-0.4 °F57 %30.08 in10.0 miWest (260°)10.4 mphMostly Cloudy
9:15 AM14.0 °F1.4 °F57 %30.08 in10.0 miWest (260°)15.0 mph18.4 mphOvercast
9:35 AM14.0 °F1.4 °F57 %30.09 in10.0 miWest (270°)11.5 mphOvercast
9:55 AM14.0 °F1.4 °F57 %30.08 in10.0 miWSW (250°)13.8 mph17.3 mphOvercast
10:15 AM14.0 °F1.4 °F57 %30.08 in10.0 miWSW (250°)12.7 mph19.6 mphOvercast
10:35 AM15.8 °F3.2 °F58 %30.09 in10.0 miWSW (250°)12.7 mph17.3 mphScattered Clouds
10:55 AM15.8 °F3.2 °F58 %30.09 in10.0 miWest (260°)13.8 mph23.0 mphClear
11:35 AM15.8 °F3.2 °F58 %30.07 in10.0 miWest (270°)15.0 mph20.7 mphMostly Cloudy
11:55 AM15.8 °F3.2 °F58 %30.06 in10.0 miWNW (300°)16.1 mph23.0 mphMostly Cloudy
12:15 PM15.8 °F3.2 °F58 %30.05 in10.0 miWNW (290°)13.8 mph20.7 mphPartly Cloudy
12:55 PM17.6 °F3.2 °F53 %30.03 in10.0 miWest (280°)15.0 mph23.0 mphOvercast
1:35 PM17.6 °F3.2 °F53 %30.01 in10.0 miWest (270°)17.3 mph24.2 mphOvercast
1:55 PM17.6 °F3.2 °F53 %30.01 in10.0 miWest (270°)13.8 mph23.0 mphOvercast
2:15 PM17.6 °F1.4 °F49 %30.00 in10.0 miWest (280°)18.4 mph24.2 mphScattered Clouds
2:35 PM17.6 °F1.4 °F49 %30.01 in10.0 miWest (270°)19.6 mph25.3 mphClear
2:55 PM17.6 °F1.4 °F49 %30.00 in10.0 miWest (260°)17.3 mph25.3 mphClear
3:15 PM19.4 °F1.4 °F46 %30.00 in10.0 miWSW (240°)15.0 mph21.9 mphClear
3:35 PM19.4 °F-0.4 °F42 %30.00 in10.0 miWSW (250°)13.8 mph20.7 mphClear
3:55 PM19.4 °F-0.4 °F42 %30.01 in10.0 miWest (260°)10.4 mph16.1 mphClear
4:15 PM19.4 °F-0.4 °F42 %30.00 in10.0 miWest (270°)11.5 mphClear
4:35 PM17.6 °F-0.4 °F45 %30.00 in10.0 miWSW (250°)10.4 mphClear
4:55 PM17.6 °F-0.4 °F45 %29.99 in10.0 miWest (260°)3.5 mphClear
5:15 PM15.8 °F-2.2 °F45 %29.99 in10.0 miWSW (240°)11.5 mph20.7 mphClear
5:35 PM15.8 °F-2.2 °F45 %29.98 in10.0 miSW (220°)12.7 mph19.6 mphClear
5:55 PM15.8 °F-4.0 °F41 %29.99 in10.0 miSW (230°)15.0 mph20.7 mphClear
6:15 PM17.6 °F-4.0 °F38 %30.00 in10.0 miNW (320°)6.9 mph16.1 mphPartly Cloudy
6:35 PM14.0 °F-4.0 °F45 %30.01 in10.0 miCalmScattered Clouds
6:55 PM14.0 °F-4.0 °F45 %30.00 in10.0 miWest (270°)10.4 mphPartly Cloudy
7:15 PM14.0 °F-2.2 °F49 %30.00 in10.0 miWNW (300°)10.4 mphPartly Cloudy
7:35 PM14.0 °F-2.2 °F49 %30.00 in10.0 miWNW (290°)8.1 mphPartly Cloudy
7:55 PM14.0 °F-2.2 °F49 %30.00 in10.0 miWNW (290°)11.5 mphClear
8:15 PM14.0 °F-2.2 °F49 %29.99 in10.0 miWNW (300°)6.9 mphClear
8:35 PM14.0 °F-2.2 °F49 %29.97 in10.0 miSSW (210°)15.0 mph18.4 mphClear
8:55 PM14.0 °F-2.2 °F49 %29.97 in10.0 miSW (220°)15.0 mphClear
9:15 PM14.0 °F-2.2 °F49 %29.97 in10.0 miSSW (210°)15.0 mphClear
9:55 PM14.0 °F-2.2 °F49 %29.96 in10.0 miSW (230°)12.7 mph18.4 mphClear
10:15 PM15.8 °F-2.2 °F45 %29.95 in10.0 miSW (220°)16.1 mph23.0 mphClear
10:35 PM14.0 °F-2.2 °F49 %29.96 in10.0 miSW (230°)11.5 mph18.4 mphClear
10:55 PM14.0 °F-2.2 °F49 %29.96 in10.0 miSW (230°)15.0 mph19.6 mphClear
11:15 PM12.2 °F-2.2 °F53 %29.97 in10.0 miWest (280°)6.9 mphClear
11:35 PM10.4 °F-4.0 °F52 %29.97 in10.0 miWest (280°)8.1 mphClear
11:55 PM12.2 °F-4.0 °F48 %29.97 in10.0 miWest (280°)6.9 mphClear
Hourly data recorded from KSPF, located miles away from Sundance, Wyoming







STORIES FROM OUR PARTNERS